This is the latest recevied weather packets stored in our database for station/object IU1DOF-3. If no packets are shown the sender has not sent any weather packets the latest 10 day(s).
| Time | Temp. | Humidity | Pressure | Rain* | Wind** | Luminosity | Snow |
|---|---|---|---|---|---|---|---|
| 1777651744 | 15.56° C | 61% | 1022.9 hPa | 0 mm | - | - | - |
| 1777651120 | 15.56° C | 61% | 1023.2 hPa | 0 mm | - | - | - |
| 1777650497 | 16.11° C | 59% | 1023.2 hPa | 0 mm | - | - | - |
| 1777649872 | 16.11° C | 62% | 1023.4 hPa | 0 mm | - | - | - |
| 1777649262 | 15.56° C | 61% | 1023.3 hPa | 0 mm | - | - | - |
| 1777648641 | 15.56° C | 60% | 1023.3 hPa | 0 mm | - | - | - |
| 1777648016 | 15° C | 61% | 1023.5 hPa | 0 mm | - | - | - |
| 1777647401 | 15.56° C | 60% | 1023.5 hPa | 0 mm | - | - | - |
| 1777646784 | 15° C | 59% | 1023.7 hPa | 0 mm | - | - | - |
| 1777646163 | 15° C | 61% | 1023.9 hPa | 0 mm | - | - | - |
| 1777645542 | 15° C | 58% | 1023.9 hPa | 0 mm | - | - | - |
| 1777644929 | 13.89° C | 61% | 1024.1 hPa | 0 mm | - | - | - |
| 1777644304 | 13.33° C | 63% | 1024.3 hPa | 0 mm | - | - | - |
| 1777643696 | 13.89° C | 60% | 1024.3 hPa | 0 mm | - | - | - |
| 1777643073 | 13.33° C | 60% | 1024.3 hPa | 0 mm | - | - | - |
| 1777642464 | 13.33° C | 63% | 1024.6 hPa | 0 mm | - | - | - |
| 1777641841 | 13.33° C | 58% | 1024.7 hPa | 0 mm | - | - | - |
| 1777641217 | 13.89° C | 62% | 1024.9 hPa | 0 mm | - | - | - |
| 1777640593 | 13.33° C | 61% | 1024.9 hPa | 0 mm | - | - | - |
| 1777639984 | 13.33° C | 60% | 1024.9 hPa | 0 mm | - | - | - |
| 1777639362 | 12.78° C | 61% | 1025.2 hPa | 0 mm | - | - | - |
| 1777638752 | 12.78° C | 63% | 1025.2 hPa | 0 mm | - | - | - |
| 1777638129 | 12.78° C | 63% | 1025.2 hPa | 0 mm | - | - | - |
| 1777637520 | 12.78° C | 65% | 1025.1 hPa | 0 mm | - | - | - |
| 1777636912 | 12.78° C | 67% | 1025.1 hPa | 0 mm | - | - | - |
* Rain latest hour (hover to see other rain measurements)
** Current wind speed in m/s (hover to see current wind gust speed)